Regional Weather Roundup
Issued by NWS

Home | Current Version | Previous Version | Text Only | Print | Product List | Glossary Off
Versions: 1 2 3 4 5 6 7 8 9 10 11 12 13 14 15 16 17 18 19 20 21 22 23 24 25 26 27 28 29 30 31 32 33 34 35 36 37 38 39 40 41 42 43 44 45 46 47 48 49 50

000
ASUS43 KLOT 291703
RWRIL

ILLINOIS REGIONAL WEATHER ROUNDUP
NATIONAL WEATHER SERVICE CHICAGO/ROMEOVILLE IL
1200 PM CDT FRI APR 29 2016

NOTE: "FAIR" INDICATES FEW OR NO CLOUDS BELOW 12,000 FEET WITH NO
SIGNIFICANT WEATHER AND/OR OBSTRUCTIONS TO VISIBILITY.

* THESE STATIONS ARE NOT UNDER NWS QUALITY CONTROL. THEY ALSO MAY NOT
  REPORT WEATHER SUCH AS PRECIPITATION OR FOG.

ILZ001-002-007-009-015-016-024-291800-
NORTHWEST ILLINOIS

CITY           SKY/WX    TMP DP  RH WIND       PRES   REMARKS
MOLINE         CLOUDY    48  40  73 S6        30.12S
STERLING*      CLOUDY    46  41  81 SE6       30.13R
$$

ILZ003-004-008-010-011-017-018-291800-
NORTH CENTRAL ILLINOIS

CITY           SKY/WX    TMP DP  RH WIND       PRES   REMARKS
ROCKFORD       CLOUDY    48  38  68 NE15      30.10F
FREEPORT*      CLOUDY    47  39  73 NE14      30.10F
DE KALB*       CLOUDY    46  40  82 NE14      30.09S
$$

ILZ005-006-012>014-019>023-291800-
NORTHEAST ILLINOIS

CITY           SKY/WX    TMP DP  RH WIND       PRES   REMARKS
CHICAGO-OHARE  CLOUDY    46  40  79 N12       30.09F
CHICAGO-MIDWAY CLOUDY    49  38  65 N13       30.09S
AURORA         CLOUDY    47  40  76 NE10      30.10R
LANSING*       CLOUDY    48  40  75 N13       30.10R
WAUKEGAN       CLOUDY    44  39  82 NE15G21   30.08F
DUPAGE AIRPORT CLOUDY    47  39  74 N12       30.08F
WHEELING       CLOUDY    45  39  79 NE9       30.11F
NORTHERLY ISL    N/A     44  39  82 N13         N/A
NORTHERLY ISL    N/A     44  39  82 N13         N/A
$$

LMZ740>746-291800-
SOUTHERN LAKE MICHIGAN

STATION/POSITION SKY/WX   TEMP    WIND        PRES    VSBY  WAVE
                          AIR SEA DIR/SP/G                  HT/PER
                          (F)     (DEG/KT/KT) (MB)    (MI)  (FT/S)
SOUTHERN BUOY              40 40   40/ 10/ 10 1020.0          1/ 3
HARRISON CRIB              42     360/ 14/ 15   N/A
BURNHAM HARBOR             43      10/ 12/ 18   N/A
CALUMET HARBOR             43     330/ 13/ 16 1018.7F
BURNS HARBOR               42     350/ 11/ 15 1019.6F
MICHIGAN CITY              42     310/ 15/ 16   N/A
ST. JOSEPH                 43 46     CALM       N/A           1/ 3
$$

ILZ025>027-034>036-040-047-049-050-058-095>099-291800-
WEST-CENTRAL ILLINOIS

CITY           SKY/WX    TMP DP  RH WIND       PRES   REMARKS
QUINCY         CLOUDY    52  46  80 NE13      30.08R
MACOMB*        CLOUDY    49  46  87 E9        30.12S
$$

ILZ028>032-037-038-041>044-048-051>054-059>061-291800-
CENTRAL ILLINOIS

CITY           SKY/WX    TMP DP  RH WIND       PRES   REMARKS
BLOOMINGTON    CLOUDY    53  46  77 N9        30.10S
DECATUR        CLOUDY    56  47  71 NE3       30.08S
PEORIA         CLOUDY    53  43  68 N5        30.10F
SPRINGFIELD    CLOUDY    56  49  77 NE10      30.07S
TAYLORVILLE    NOT AVBL
$$

ILZ033-039-045-046-055>057-062-063-291800-
EAST-CENTRAL ILLINOIS

CITY           SKY/WX    TMP DP  RH WIND       PRES   REMARKS
CHAMPAIGN      CLOUDY    56  48  74 NE8       30.08S
MATTOON        CLOUDY   N/A N/A N/A NE12      30.06F
$$

ILZ079-100>102-291800-
SOUTHWEST ILLINOIS

CITY           SKY/WX    TMP DP  RH WIND       PRES   REMARKS
ALTON          CLOUDY    59  50  72 E6        30.07R
BELLEVILLE     CLOUDY    60  53  75 SE6       30.06R
CAHOKIA*       CLOUDY    61  50  67 VRB5      30.07S
SPARTA*        CLOUDY    60  51  73 CALM      30.07F
$$

ILZ064>066-069>071-074>076-080>082-084>086-088>090-092>094-291800-
SOUTH-CENTRAL ILLINOIS

CITY           SKY/WX    TMP DP  RH WIND       PRES   REMARKS
CARBONDALE     CLOUDY    64  51  62 CALM      30.05F
MARION         PTSUNNY   64  54  68 SE8       30.07S
MT. VERNON     CLOUDY    63  50  63 E5        30.07R
SALEM*         CLOUDY    64  51  63 NE3       30.07R
$$

ILZ067-068-072-073-078-083-087-091-291800-
SOUTHEAST ILLINOIS

CITY           SKY/WX    TMP DP  RH WIND       PRES   REMARKS
LAWRENCEVILLE  CLOUDY    65  51  60 NE10      30.05F
FLORA*         CLOUDY    64  51  63 E7        30.07R
HARRISBURG*    CLOUDY    64  53  66 E5        30.07S
ROBINSON*      CLOUDY    63  52  69 NE3       30.06F
$$

ABBREVIATIONS USED IN REMARKS
   TC - TEMPERATURE IN CELSIUS
  WCI - WIND CHILL INDEX
   HX - HEAT INDEX
  VSB - VISIBILITY
$$





USA.gov is the U.S. government's official web portal to all federal, state and local government web resources and services.